This is the latest recevied weather packets stored in our database for station/object CW79215. If no packets are shown the sender has not sent any weather packets the latest 10 day(s).
| Time | Temp. | Humidity | Pressure | Rain* | Wind** | Luminosity | Snow |
|---|---|---|---|---|---|---|---|
| 1777962139 | 13.89° C | 76% | 1014.6 hPa | - | - | - | - |
| 1777961239 | 13.33° C | 75% | 1014.6 hPa | - | - | - | - |
| 1777960339 | 13.89° C | 72% | 1014.4 hPa | - | - | - | - |
| 1777959438 | 13.89° C | 72% | 1014.5 hPa | - | - | - | - |
| 1777958538 | 12.78° C | 75% | 1014.3 hPa | - | - | - | - |
| 1777957638 | 12.78° C | 75% | 1014.3 hPa | - | - | - | - |
| 1777956738 | 12.22° C | 78% | 1014.3 hPa | - | - | - | - |
| 1777955838 | 12.22° C | 78% | 1014.5 hPa | - | - | - | - |
| 1777954938 | 12.22° C | 78% | 1014.6 hPa | - | - | - | - |
| 1777954038 | 12.22° C | 78% | 1014.3 hPa | - | - | - | - |
| 1777953138 | 12.22° C | 77% | 1014.4 hPa | - | - | - | - |
| 1777952238 | 12.22° C | 78% | 1014.5 hPa | - | - | - | - |
| 1777951338 | 12.78° C | 76% | 1014.5 hPa | - | - | - | - |
| 1777950438 | 12.22° C | 78% | 1014.6 hPa | - | - | - | - |
| 1777949537 | 12.22° C | 78% | 1014.7 hPa | - | - | - | - |
| 1777948637 | 12.78° C | 78% | 1014.9 hPa | - | - | - | - |
| 1777947737 | 12.22° C | 79% | 1015.2 hPa | - | - | - | - |
| 1777946837 | 12.22° C | 79% | 1015.2 hPa | - | - | - | - |
| 1777945937 | 12.22° C | 79% | 1015.4 hPa | - | - | - | - |
| 1777945037 | 12.78° C | 78% | 1015.5 hPa | - | - | - | - |
| 1777944137 | 12.78° C | 78% | 1015.6 hPa | - | - | - | - |
| 1777943237 | 12.78° C | 78% | 1015.7 hPa | - | - | - | - |
| 1777942337 | 12.78° C | 78% | 1015.9 hPa | - | - | - | - |
| 1777941437 | 12.78° C | 78% | 1016.1 hPa | - | - | - | - |
| 1777940537 | 13.33° C | 78% | 1016.4 hPa | - | - | - | - |
* Rain since midnight (hover to see other rain measurements)
** Current wind speed in m/s (hover to see current wind gust speed)